QFA606 WSSS-YSCB

Flight info

Callsign QFA606
Flight time N/A
Altitude 33000
Route WSSS/20C N0504F330 ANIT8B ANITO B470 PKP L895 SAPDA A585 DOMOM/N0498F350 A585 PD T21 VIRUV/N0483F370 T21 LEC J141 NEWMO H39 VELGI DCT AVBEG AVBE6A YSCB/35
Aircraft A339/H-V/N

Departure

Time 2026-05-08 04:54
Airport Singapore Changi Airport (WSSS)

Arrival

Time N/A
Airport Canberra Airport (YSCB)
Time Latitude Longitude Altitude Speed Heading
2026-05-08 04:25 1.35486 103.98399 41 ft 0 kts 94°
2026-05-08 04:40 1.35487 103.98391 41 ft 2 kts 96°
2026-05-08 04:40 1.35489 103.98375 40 ft 2 kts 96°
2026-05-08 04:40 1.35491 103.98358 40 ft 2 kts 96°
2026-05-08 04:41 1.35493 103.98341 39 ft 2 kts 96°
2026-05-08 04:41 1.35494 103.98325 39 ft 1 kts 96°
2026-05-08 04:41 1.35495 103.98313 39 ft 2 kts 86°
2026-05-08 04:41 1.35491 103.98296 38 ft 2 kts 55°
2026-05-08 04:42 1.35478 103.98284 38 ft 1 kts 26°
2026-05-08 04:42 1.35472 103.98281 38 ft 1 kts 22°
2026-05-08 04:42 1.35469 103.98280 38 ft 0 kts 23°
2026-05-08 04:44 1.35470 103.98280 38 ft 0 kts 24°
2026-05-08 04:44 1.35478 103.98284 38 ft 1 kts 23°
2026-05-08 04:44 1.35500 103.98293 38 ft 4 kts 23°
2026-05-08 04:45 1.35537 103.98309 39 ft 6 kts 22°
2026-05-08 04:45 1.35601 103.98334 37 ft 11 kts 21°
2026-05-08 04:45 1.35692 103.98370 37 ft 13 kts 25°
2026-05-08 04:45 1.35783 103.98411 39 ft 13 kts 25°
2026-05-08 04:46 1.35878 103.98453 39 ft 14 kts 23°
2026-05-08 04:46 1.35979 103.98495 39 ft 14 kts 23°
2026-05-08 04:46 1.36079 103.98537 40 ft 14 kts 23°
2026-05-08 04:46 1.36212 103.98595 39 ft 22 kts 23°
2026-05-08 04:47 1.36365 103.98659 39 ft 21 kts 23°
2026-05-08 04:47 1.36513 103.98723 36 ft 22 kts 24°
2026-05-08 04:47 1.36659 103.98789 36 ft 21 kts 25°
2026-05-08 04:47 1.36772 103.98839 36 ft 14 kts 31°
2026-05-08 04:48 1.36781 103.98913 36 ft 10 kts 127°
2026-05-08 04:48 1.36749 103.98978 36 ft 9 kts 106°
2026-05-08 04:48 1.36734 103.99048 37 ft 9 kts 103°
2026-05-08 04:48 1.36709 103.99110 38 ft 9 kts 116°
2026-05-08 04:49 1.36678 103.99174 39 ft 10 kts 112°
2026-05-08 04:49 1.36648 103.99249 40 ft 11 kts 112°
2026-05-08 04:49 1.36615 103.99330 40 ft 11 kts 112°
2026-05-08 04:49 1.36579 103.99415 39 ft 13 kts 113°
2026-05-08 04:50 1.36540 103.99506 39 ft 13 kts 114°
2026-05-08 04:50 1.36498 103.99597 39 ft 14 kts 115°
2026-05-08 04:50 1.36457 103.99689 39 ft 14 kts 114°
2026-05-08 04:50 1.36417 103.99786 37 ft 12 kts 111°
2026-05-08 04:51 1.36392 103.99843 36 ft 0 kts 121°
2026-05-08 04:51 1.36389 103.99847 36 ft 1 kts 121°
2026-05-08 04:51 1.36387 103.99850 36 ft 0 kts 122°
2026-05-08 04:52 1.36327 103.99888 36 ft 12 kts 157°
2026-05-08 04:52 1.36259 103.99899 37 ft 7 kts 170°
2026-05-08 04:53 1.36207 103.99900 38 ft 6 kts 189°
2026-05-08 04:53 1.36188 103.99895 38 ft 0 kts 194°
2026-05-08 04:53 1.36187 103.99895 38 ft 1 kts 194°
2026-05-08 04:53 1.36067 103.99849 39 ft 42 kts 203°
2026-05-08 04:54 1.35550 103.99643 43 ft 103 kts 201°
2026-05-08 04:54 1.34675 103.99274 41 ft 152 kts 200°
2026-05-08 04:54 1.33525 103.98771 91 ft 188 kts 205°
2026-05-08 04:54 1.32393 103.98152 748 ft 179 kts 206°
2026-05-08 04:55 1.31254 103.97662 1253 ft 179 kts 200°
2026-05-08 04:55 1.30074 103.97225 1762 ft 182 kts 200°
2026-05-08 04:55 1.28864 103.96762 2032 ft 191 kts 201°
2026-05-08 04:55 1.27584 103.96249 2258 ft 203 kts 201°
2026-05-08 04:56 1.26227 103.95690 2483 ft 216 kts 202°
2026-05-08 04:56 1.24790 103.95092 2724 ft 229 kts 202°
2026-05-08 04:56 1.23220 103.94603 2966 ft 243 kts 185°
2026-05-08 04:56 1.21441 103.94711 3234 ft 256 kts 167°
2026-05-08 04:57 1.19599 103.95166 3605 ft 267 kts 165°
2026-05-08 04:57 1.18419 103.95476 3957 ft 269 kts 165°
2026-05-08 04:57 1.16526 103.95968 4545 ft 272 kts 165°
2026-05-08 04:57 1.14606 103.96453 5113 ft 275 kts 165°
2026-05-08 04:58 1.12681 103.96933 5649 ft 279 kts 165°
2026-05-08 04:58 1.10743 103.97599 5938 ft 280 kts 152°
2026-05-08 04:58 1.09011 103.98686 5968 ft 279 kts 142°
2026-05-08 04:58 1.07407 103.99931 5975 ft 278 kts 140°
2026-05-08 04:59 1.05851 104.01167 5975 ft 278 kts 141°
2026-05-08 04:59 1.04299 104.02385 5968 ft 278 kts 140°
2026-05-08 04:59 1.02873 104.03790 5973 ft 277 kts 125°
2026-05-08 04:59 1.01902 104.05538 5984 ft 277 kts 112°
2026-05-08 05:00 1.01143 104.07356 5974 ft 277 kts 111°
2026-05-08 05:00 1.00394 104.09200 5977 ft 277 kts 111°
2026-05-08 05:00 0.99655 104.10993 5954 ft 278 kts 111°
2026-05-08 05:00 0.98903 104.12790 5900 ft 277 kts 112°
2026-05-08 05:01 0.98156 104.14568 6022 ft 282 kts 112°
2026-05-08 05:01 0.97392 104.16383 6607 ft 283 kts 111°
2026-05-08 05:01 0.96630 104.18190 7218 ft 282 kts 111°
2026-05-08 05:01 0.95864 104.20006 7736 ft 284 kts 111°
2026-05-08 05:02 0.95074 104.21828 8247 ft 287 kts 114°
2026-05-08 05:02 0.94152 104.23582 8749 ft 290 kts 119°
2026-05-08 05:02 0.93096 104.25311 9248 ft 292 kts 121°
2026-05-08 05:02 0.92015 104.27040 9725 ft 295 kts 121°
2026-05-08 05:03 0.90915 104.28797 10164 ft 300 kts 120°
2026-05-08 05:03 0.89795 104.30592 10387 ft 312 kts 120°
2026-05-08 05:03 0.88617 104.32483 10600 ft 325 kts 120°
2026-05-08 05:03 0.87401 104.34435 10815 ft 337 kts 121°
2026-05-08 05:04 0.86152 104.36443 11015 ft 349 kts 121°
2026-05-08 05:04 0.84842 104.38546 11216 ft 361 kts 121°
2026-05-08 05:04 0.83480 104.40733 11410 ft 373 kts 121°
2026-05-08 05:04 0.82069 104.42950 11615 ft 384 kts 123°
2026-05-08 05:05 0.80523 104.45155 12001 ft 389 kts 124°
2026-05-08 05:05 0.78959 104.47353 12542 ft 390 kts 124°
2026-05-08 05:05 0.77390 104.49558 13042 ft 393 kts 124°
2026-05-08 05:05 0.75789 104.51811 13512 ft 396 kts 124°
2026-05-08 05:06 0.74190 104.54046 14014 ft 398 kts 126°
2026-05-08 05:06 0.72272 104.56035 14467 ft 403 kts 140°
2026-05-08 05:06 0.69878 104.57493 14885 ft 407 kts 154°
2026-05-08 05:06 0.67145 104.58419 15328 ft 410 kts 162°
2026-05-08 05:07 0.64400 104.59205 15743 ft 412 kts 162°
2026-05-08 05:07 0.61638 104.59998 16142 ft 415 kts 162°
2026-05-08 05:07 0.58861 104.60807 16540 ft 417 kts 162°
2026-05-08 05:07 0.56049 104.61636 16936 ft 419 kts 161°
2026-05-08 05:08 0.53230 104.62472 17326 ft 422 kts 161°
2026-05-08 05:08 0.50425 104.63306 17700 ft 424 kts 161°
2026-05-08 05:08 0.47586 104.64151 18069 ft 427 kts 161°
2026-05-08 05:08 0.44702 104.65007 18435 ft 429 kts 161°
2026-05-08 05:09 0.41812 104.65861 18787 ft 432 kts 161°
2026-05-08 05:09 0.38948 104.66708 19134 ft 435 kts 161°
2026-05-08 05:09 0.36033 104.67570 19483 ft 437 kts 161°
2026-05-08 05:09 0.33106 104.68436 19817 ft 439 kts 161°
2026-05-08 05:10 0.30129 104.69318 20144 ft 442 kts 161°
2026-05-08 05:10 0.24192 104.71079 20770 ft 446 kts 161°
2026-05-08 05:10 0.21238 104.71954 21067 ft 449 kts 161°
2026-05-08 05:11 0.18221 104.72849 21366 ft 451 kts 161°
2026-05-08 05:11 0.15202 104.73743 21652 ft 453 kts 161°
2026-05-08 05:11 0.12158 104.74644 21933 ft 455 kts 161°
2026-05-08 05:11 0.09111 104.75548 22203 ft 457 kts 161°
2026-05-08 05:12 0.06040 104.76458 22480 ft 459 kts 160°
2026-05-08 05:12 0.02968 104.77371 22761 ft 461 kts 160°
2026-05-08 05:12 -0.00115 104.78286 23047 ft 462 kts 160°
2026-05-08 05:12 -0.03217 104.79208 23319 ft 464 kts 161°
2026-05-08 05:13 -0.06327 104.80132 23599 ft 465 kts 160°
2026-05-08 05:13 -0.09473 104.81068 23871 ft 467 kts 161°
2026-05-08 05:13 -0.12584 104.81992 24130 ft 469 kts 161°
2026-05-08 05:13 -0.15741 104.82931 24387 ft 470 kts 161°
2026-05-08 05:14 -0.18909 104.83872 24641 ft 472 kts 161°
2026-05-08 05:14 -0.22035 104.84801 24875 ft 473 kts 161°
2026-05-08 05:14 -0.25185 104.85802 25120 ft 473 kts 157°
2026-05-08 05:14 -0.28224 104.87064 25374 ft 472 kts 152°
2026-05-08 05:15 -0.31143 104.88607 25620 ft 471 kts 147°
2026-05-08 05:15 -0.33911 104.90376 25862 ft 471 kts 144°
2026-05-08 05:15 -0.36639 104.92214 26104 ft 472 kts 143°
2026-05-08 05:15 -0.39370 104.94076 26324 ft 474 kts 143°
2026-05-08 05:16 -0.42080 104.95923 26524 ft 475 kts 143°
2026-05-08 05:16 -0.44832 104.97795 26740 ft 477 kts 143°
2026-05-08 05:16 -0.47575 104.99658 26945 ft 478 kts 143°
2026-05-08 05:16 -0.50328 105.01524 27148 ft 480 kts 143°
2026-05-08 05:17 -0.53101 105.03403 27363 ft 481 kts 143°
2026-05-08 05:17 -0.55866 105.05276 27562 ft 482 kts 143°
2026-05-08 05:17 -0.58659 105.07166 27760 ft 484 kts 143°
2026-05-08 05:17 -0.61458 105.09059 27969 ft 485 kts 143°
2026-05-08 05:18 -0.64238 105.10940 28175 ft 485 kts 143°
2026-05-08 05:18 -0.67035 105.12833 28369 ft 487 kts 143°
2026-05-08 05:18 -0.69839 105.14732 28554 ft 488 kts 143°
2026-05-08 05:18 -0.72682 105.16654 28740 ft 489 kts 143°
2026-05-08 05:19 -0.75492 105.18555 28956 ft 489 kts 143°
2026-05-08 05:19 -0.78307 105.20460 29248 ft 488 kts 144°
2026-05-08 05:19 -0.81132 105.22370 29539 ft 486 kts 143°
2026-05-08 05:19 -0.83900 105.24243 29760 ft 486 kts 143°
2026-05-08 05:20 -0.86698 105.26138 29999 ft 486 kts 143°
2026-05-08 05:20 -0.89533 105.28056 30225 ft 486 kts 143°
2026-05-08 05:20 -0.92334 105.29953 30458 ft 486 kts 143°
2026-05-08 05:20 -0.95127 105.31842 30708 ft 485 kts 143°
2026-05-08 05:21 -0.97896 105.33716 30978 ft 484 kts 143°
2026-05-08 05:21 -1.00694 105.35609 31233 ft 483 kts 143°
2026-05-08 05:21 -1.03487 105.37502 31472 ft 483 kts 143°
2026-05-08 05:21 -1.06278 105.39391 31637 ft 484 kts 143°
2026-05-08 05:22 -1.09055 105.41271 31794 ft 485 kts 143°
2026-05-08 05:22 -1.11860 105.43171 31964 ft 486 kts 143°
2026-05-08 05:22 -1.14643 105.45055 32138 ft 487 kts 143°
2026-05-08 05:22 -1.17467 105.46966 32316 ft 487 kts 143°
2026-05-08 05:23 -1.20271 105.48864 32501 ft 487 kts 143°
2026-05-08 05:23 -1.23081 105.50767 32674 ft 488 kts 143°
2026-05-08 05:23 -1.25901 105.52677 32827 ft 489 kts 143°
2026-05-08 05:24 -1.31539 105.56496 32832 ft 490 kts 143°
2026-05-08 05:24 -1.37196 105.60325 32834 ft 490 kts 143°
2026-05-08 05:25 -1.42845 105.64148 32832 ft 490 kts 143°
2026-05-08 05:25 -1.48478 105.67963 32834 ft 489 kts 143°
2026-05-08 05:26 -1.54116 105.71781 32829 ft 489 kts 143°
2026-05-08 05:26 -1.59758 105.75601 32825 ft 490 kts 143°
2026-05-08 05:27 -1.65434 105.79446 32823 ft 490 kts 143°
2026-05-08 05:27 -1.71077 105.83270 32818 ft 490 kts 143°
2026-05-08 05:28 -1.76766 105.87124 32820 ft 490 kts 143°
2026-05-08 05:28 -1.82444 105.90971 32822 ft 490 kts 143°
2026-05-08 05:29 -1.88105 105.94807 32826 ft 490 kts 143°
2026-05-08 05:29 -1.93763 105.98642 32828 ft 490 kts 143°
2026-05-08 05:30 -1.99435 106.02490 32828 ft 489 kts 143°
2026-05-08 05:30 -2.05110 106.06340 32826 ft 488 kts 143°
2026-05-08 05:31 -2.10714 106.10238 32821 ft 489 kts 140°
2026-05-08 05:31 -2.15973 106.14619 32819 ft 489 kts 135°
2026-05-08 05:32 -2.20717 106.19469 32810 ft 488 kts 129°
2026-05-08 05:32 -2.25006 106.24747 32807 ft 487 kts 126°
2026-05-08 05:33 -2.29167 106.30080 32817 ft 487 kts 126°
2026-05-08 05:33 -2.33344 106.35435 32823 ft 489 kts 126°
2026-05-08 05:34 -2.37534 106.40795 32832 ft 489 kts 126°
2026-05-08 05:34 -2.41730 106.46168 32830 ft 489 kts 126°
2026-05-08 05:35 -2.45915 106.51524 32834 ft 490 kts 126°
2026-05-08 05:35 -2.50130 106.56916 32828 ft 491 kts 126°
2026-05-08 05:36 -2.54333 106.62298 32833 ft 492 kts 126°
2026-05-08 05:36 -2.58561 106.67709 32831 ft 492 kts 126°
2026-05-08 05:37 -2.62782 106.73113 32834 ft 492 kts 126°
2026-05-08 05:37 -2.66999 106.78512 32833 ft 493 kts 126°
2026-05-08 05:38 -2.71206 106.83898 32836 ft 494 kts 126°
2026-05-08 05:38 -2.75428 106.89304 32831 ft 494 kts 126°
2026-05-08 05:39 -2.79662 106.94729 32831 ft 495 kts 126°
2026-05-08 05:39 -2.83913 107.00177 32831 ft 496 kts 126°
2026-05-08 05:40 -2.88160 107.05617 32831 ft 497 kts 126°
2026-05-08 05:40 -2.92401 107.11053 32828 ft 496 kts 126°
2026-05-08 05:41 -2.96637 107.16477 32822 ft 496 kts 126°
2026-05-08 05:41 -3.00886 107.21923 32814 ft 495 kts 126°
2026-05-08 05:42 -3.05127 107.27367 32813 ft 496 kts 126°
2026-05-08 05:42 -3.09362 107.32800 32814 ft 497 kts 126°
2026-05-08 05:43 -3.13614 107.38255 32814 ft 496 kts 126°
2026-05-08 05:43 -3.17842 107.43679 32814 ft 495 kts 126°
2026-05-08 05:44 -3.22084 107.49126 32814 ft 495 kts 126°
2026-05-08 05:44 -3.26356 107.54509 32814 ft 495 kts 129°
2026-05-08 05:45 -3.31232 107.59380 32816 ft 498 kts 137°
2026-05-08 05:45 -3.36792 107.63500 32814 ft 500 kts 146°
2026-05-08 05:46 -3.42968 107.66795 32817 ft 502 kts 154°
2026-05-08 05:46 -3.49383 107.69573 32814 ft 503 kts 155°
2026-05-08 05:47 -3.55839 107.72334 32814 ft 503 kts 155°
2026-05-08 05:47 -3.62273 107.75099 32817 ft 503 kts 155°
2026-05-08 05:48 -3.68691 107.77866 32815 ft 502 kts 155°
2026-05-08 05:48 -3.75149 107.80652 32817 ft 502 kts 155°
2026-05-08 05:49 -3.81559 107.83419 32815 ft 502 kts 155°
2026-05-08 05:49 -3.87980 107.86192 32818 ft 503 kts 155°
2026-05-08 05:50 -3.94400 107.88964 32824 ft 503 kts 155°
2026-05-08 05:50 -4.00840 107.91746 32832 ft 503 kts 155°
2026-05-08 05:51 -4.07273 107.94525 32836 ft 502 kts 155°
2026-05-08 05:51 -4.13696 107.97300 32836 ft 503 kts 155°
2026-05-08 05:52 -4.20142 108.00085 32834 ft 503 kts 155°
2026-05-08 05:52 -4.26595 108.02876 32834 ft 503 kts 155°
2026-05-08 05:53 -4.32999 108.05644 32830 ft 503 kts 155°
2026-05-08 05:53 -4.39454 108.08435 32824 ft 503 kts 155°
2026-05-08 05:54 -4.45904 108.11224 32823 ft 503 kts 155°
2026-05-08 05:54 -4.52308 108.13996 32823 ft 502 kts 155°
2026-05-08 05:55 -4.58759 108.16787 32817 ft 503 kts 155°
2026-05-08 05:55 -4.65154 108.19554 32814 ft 503 kts 155°
2026-05-08 05:56 -4.71622 108.22353 32814 ft 503 kts 155°
2026-05-08 05:56 -4.78069 108.25143 32813 ft 504 kts 155°
2026-05-08 05:57 -4.84510 108.27933 32813 ft 503 kts 155°
2026-05-08 05:57 -4.90938 108.30718 32814 ft 503 kts 155°
2026-05-08 05:58 -4.97365 108.33502 32813 ft 503 kts 155°
2026-05-08 05:58 -5.03828 108.36301 32813 ft 504 kts 155°
2026-05-08 05:59 -5.10258 108.39088 32814 ft 504 kts 155°
2026-05-08 05:59 -5.16732 108.41892 32813 ft 504 kts 155°
2026-05-08 06:00 -5.23180 108.44689 32813 ft 504 kts 155°
2026-05-08 06:00 -5.29642 108.47492 32813 ft 504 kts 155°
2026-05-08 06:01 -5.36058 108.50276 32813 ft 504 kts 155°
2026-05-08 06:01 -5.42482 108.53064 32813 ft 503 kts 155°
2026-05-08 06:02 -5.48944 108.55867 32813 ft 503 kts 155°
2026-05-08 06:02 -5.55383 108.58661 32814 ft 503 kts 155°
2026-05-08 06:03 -5.61799 108.61447 32818 ft 503 kts 155°
2026-05-08 06:03 -5.68227 108.64239 32823 ft 503 kts 155°
2026-05-08 06:04 -5.74655 108.67031 32825 ft 503 kts 155°
2026-05-08 06:04 -5.81102 108.69832 32826 ft 503 kts 156°
2026-05-08 06:05 -5.87530 108.72626 32827 ft 502 kts 156°
2026-05-08 06:05 -5.93954 108.75417 32828 ft 503 kts 156°
2026-05-08 06:06 -6.00377 108.78210 32828 ft 502 kts 156°
2026-05-08 06:06 -6.06776 108.80994 32829 ft 503 kts 156°
2026-05-08 06:07 -6.13239 108.83804 32823 ft 503 kts 155°
2026-05-08 06:07 -6.19651 108.86594 32813 ft 503 kts 155°
2026-05-08 06:08 -6.26083 108.89395 32809 ft 503 kts 155°
2026-05-08 06:08 -6.32545 108.92209 32809 ft 503 kts 155°
2026-05-08 06:09 -6.38982 108.95013 32807 ft 504 kts 155°
2026-05-08 06:09 -6.45449 108.97830 32806 ft 505 kts 156°
2026-05-08 06:10 -6.51857 109.00623 32804 ft 505 kts 156°
2026-05-08 06:10 -6.58352 109.03454 32803 ft 505 kts 156°
2026-05-08 06:11 -6.64806 109.06266 32803 ft 505 kts 156°
2026-05-08 06:11 -6.71267 109.09084 32802 ft 505 kts 155°
2026-05-08 06:12 -6.77746 109.11912 32801 ft 506 kts 156°
2026-05-08 06:12 -6.84221 109.14737 32803 ft 506 kts 156°
2026-05-08 06:13 -6.90700 109.17566 32805 ft 506 kts 156°
2026-05-08 06:13 -6.97165 109.20389 32808 ft 506 kts 156°
2026-05-08 06:14 -7.03641 109.23217 32824 ft 506 kts 156°
2026-05-08 06:14 -7.10153 109.26061 32867 ft 507 kts 156°
2026-05-08 06:15 -7.16639 109.28896 32907 ft 507 kts 156°
2026-05-08 06:15 -7.23168 109.31750 32944 ft 507 kts 156°
2026-05-08 06:16 -7.29675 109.34596 32955 ft 506 kts 156°
2026-05-08 06:16 -7.36202 109.37453 32929 ft 506 kts 156°
2026-05-08 06:17 -7.45956 109.41721 32885 ft 506 kts 156°
2026-05-08 06:17 -7.52464 109.44570 32858 ft 507 kts 156°
2026-05-08 06:18 -7.58970 109.47419 32845 ft 507 kts 156°
2026-05-08 06:18 -7.65470 109.50267 32838 ft 507 kts 156°
2026-05-08 06:19 -7.71940 109.53102 32831 ft 507 kts 156°
2026-05-08 06:19 -7.78429 109.55947 32822 ft 506 kts 156°
2026-05-08 06:20 -7.84889 109.58780 32816 ft 506 kts 156°
2026-05-08 06:20 -7.91347 109.61613 32817 ft 507 kts 157°